Weather History for KNFL - July, 2012

Change the Weather History Date:

Wednesday, July 4, 2012

  Actual Average (KRNO) Record (KRNO)
Temperature  
Mean Temperature 76 °F 73 °F  
Max Temperature 93 °F 90 °F 106 °F (2007)
Min Temperature 59 °F 56 °F 35 °F (1963)
Degree Days  
Heating Degree Days 0 0  
Month to date heating degree days 0  
Since 1 June heating degree days 56  
Since 1 July heating degree days 0  
Cooling Degree Days 11 8  
Month to date cooling degree days 32  
Year to date cooling degree days 205  
Since 1 June cooling degree days 168  
Growing Degree Days 26 (Base 50)    
Moisture  
Dew Point 31 °F    
Average Humidity 22    
Maximum Humidity 51    
Minimum Humidity 10    
Precipitation  
Precipitation 0.00 in 0.00 in 0.04 in (1955)
Month to date precipitation 0.02  
Year to date precipitation 4.30  
Snow  
Snow 0.00 in 0.00 in 0.00 in ()
Month to date snowfall 0.0  
Since 1 June snowfall T  
Since 1 July snowfall 0.0  
Snow Depth -    
Sea Level Pressure  
Sea Level Pressure 29.81 in    
Wind  
Wind Speed 4 mph (WNW)    
Max Wind Speed 13 mph    
Max Gust Speed -    
Visibility 10 miles    
Events      
T = Trace of Precipitation, MM = Missing Value Source: NWS Daily Summary

Daily Weather History Graph

Daily Weather History Graph

Search for Another Location

Airport or City:

Trip Planner

Search our weather history database for the weather conditions in past years. The results will help you decide how hot, cold, wet, or windy it might be!

Date:

Astronomy

Jul. 04, 2012 Rise Set
Actual Time 5:33 AM PDT 8:25 PM PDT
Civil Twilight 5:01 AM PDT 8:57 PM PDT
Nautical Twilight 4:20 AM PDT 9:37 PM PDT
Astronomical Twilight 3:34 AM PDT 10:23 PM PDT
Moon 9:07 PM PDT 6:41 AM PDT
Length of Visible Light 15h 55m
Length of Day
14h 51m
Full, 99% of the Moon is Illuminated
Jul 4
Full
Jul 10
Last Quarter
Jul 18
New
Jul 26
First Quarter
Aug 1
Full

Hourly Weather History & Observations

Time (PDT) Temp. Dew Point Humidity Pressure Visibility Wind Dir Wind Speed Gust Speed Precip Events Conditions
12:56 AM 69.1 °F 37.9 °F 32% 29.83 in 10.0 mi SSW 4.6 mph - N/A   Clear
1:56 AM 69.1 °F 39.9 °F 35% 29.82 in 10.0 mi WSW 8.1 mph - N/A   Clear
2:56 AM 62.1 °F 39.0 °F 43% 29.83 in 10.0 mi Calm Calm - N/A   Clear
3:56 AM 62.1 °F 39.0 °F 43% 29.83 in 10.0 mi Calm Calm - N/A   Clear
4:56 AM 59.0 °F 41.0 °F 51% 29.84 in 10.0 mi WSW 4.6 mph - N/A   Clear
5:56 AM 60.1 °F 37.9 °F 44% 29.85 in 10.0 mi Calm Calm - N/A   Clear
6:56 AM 68.0 °F 30.0 °F 24% 29.86 in 10.0 mi Calm Calm - N/A   Clear
7:56 AM 73.0 °F 25.0 °F 17% 29.87 in 10.0 mi North 6.9 mph - N/A   Clear
8:56 AM 73.9 °F 26.1 °F 17% 29.87 in 10.0 mi Calm Calm - N/A   Clear
9:56 AM 79.0 °F 26.1 °F 14% 29.86 in 10.0 mi NNW 4.6 mph - N/A   Clear
10:56 AM 82.0 °F 24.1 °F 12% 29.85 in 10.0 mi Variable 3.5 mph - N/A   Clear
11:56 AM 86.0 °F 23.0 °F 10% 29.84 in 10.0 mi Variable 4.6 mph - N/A   Clear
12:56 PM 88.0 °F 24.1 °F 10% 29.81 in 10.0 mi Variable 3.5 mph - N/A   Clear
1:56 PM 88.0 °F 26.1 °F 11% 29.80 in 10.0 mi SSE 3.5 mph - N/A   Clear
2:56 PM 90.0 °F 28.0 °F 11% 29.78 in 10.0 mi Calm Calm - N/A   Clear
3:56 PM 91.9 °F 28.0 °F 10% 29.77 in 10.0 mi West 6.9 mph - N/A   Clear
4:56 PM 91.9 °F 30.0 °F 11% 29.74 in 10.0 mi NW 12.7 mph - N/A   Clear
5:56 PM 93.0 °F 30.9 °F 11% 29.73 in 10.0 mi NNW 6.9 mph - N/A   Clear
6:56 PM 91.0 °F 30.9 °F 12% 29.73 in 10.0 mi NNW 3.5 mph - N/A   Clear
7:56 PM 88.0 °F 32.0 °F 14% 29.75 in 10.0 mi NW 11.5 mph - N/A   Clear
8:56 PM 84.0 °F 34.0 °F 17% 29.77 in 10.0 mi WNW 10.4 mph - N/A   Clear
9:56 PM 79.0 °F 30.9 °F 17% 29.80 in 10.0 mi WNW 10.4 mph - N/A   Clear
10:56 PM 73.0 °F 33.1 °F 23% 29.83 in 10.0 mi ESE 3.5 mph - N/A   Clear
11:56 PM 68.0 °F 36.0 °F 31% 29.85 in 10.0 mi South 4.6 mph - N/A   Clear